Location: Passau
(48.5830°N, 13.4830°E)
Time: 11:58:37
(UTC+01:00)

NOAA 19 - Pass Details

Date: 29 November 2021
Orbit: 841 x 860 km, 99.2° (Epoch: 24 January)

Event Time Altitude Azimuth Distance (km) Brightness Sun altitude
Rises 17:12:24 0° 121° (ESE) 3,390 8.0 -9.4°
Reaches altitude 10° 17:15:12 10° 107° (ESE) 2,459 7.2 -9.8°
Maximum altitude 17:19:20 23° 57° (ENE) 1,734 6.2 -10.5°
Drops below altitude 10° 17:23:30 10° 8° (N) 2,476 7.4 -11.1°
Sets 17:26:19 0° 354° (N) 3,418 8.2 -11.6°
